Terminal Aerodrome Forecast
Issued by NWS Pueblo, CO

Home | Current Version | Previous Version | Text Only | Print | Product List | Glossary On
Versions: 1 2 3 4 5 6 7 8 9 10 11 12 13 14 15 16 17 18 19 20 21 22 23 24 25 26 27 28 29 30 31
000
FTUS45 KPUB 160904 AAA
TAFPUB
TAF AMD
KPUB 160904Z 1609/1706 12006KT P6SM SCT004 OVC008
      TEMPO 1609/1613 3SM BR OVC004
     FM161500 VRB05KT P6SM FEW030
     FM161900 11010KT P6SM FEW040 SCT110 SCT150=

USA.gov is the U.S. government's official web portal to all federal, state and local government web resources and services.